Weather History for Hailey, ID

Change the Weather History Date:

Monday, January 7, 2013

  Actual Average Record
Temperature  
Mean Temperature 14 °F -  
Max Temperature 23 °F 34 °F 111 °F (1999)
Min Temperature 6 °F 15 °F 3 °F (1997)
Degree Days  
Heating Degree Days 50    
Moisture  
Dew Point 12 °F    
Average Humidity 90    
Maximum Humidity 100    
Minimum Humidity 79    
Precipitation  
Precipitation 0.00 in - - ()
Sea Level Pressure  
Sea Level Pressure 30.08 in    
Wind  
Wind Speed 6 mph (NW)    
Max Wind Speed 12 mph    
Max Gust Speed -    
Visibility 10 miles    
Events Snow    
Averages and records for this station are not official NWS values.
T = Trace of Precipitation, MM = Missing Value Source: NWS Daily Summary

Daily Weather History Graph

Daily Weather History Graph

Search for Another Location

Airport:

Trip Planner

Search our weather history database for the weather conditions in past years. The results will help you decide how hot, cold, wet, or windy it might be!

Date:

Astronomy

Jan. 07, 2013 Rise Set
Actual Time 8:09 AM MST 5:17 PM MST
Civil Twilight 7:37 AM MST 5:50 PM MST
Nautical Twilight 7:01 AM MST 6:25 PM MST
Astronomical Twilight 6:27 AM MST 7:00 PM MST
Moon 3:36 AM MST (1/7) 1:33 PM MST (1/7)
Length of Visible Light 10h 12m
Length of Day
9h 07m
Waning Crescent, 22% of the Moon is Illuminated
Jan 7
Waning Crescent
Jan 11
New
Jan 18
First Quarter
Jan 26
Full
Feb 3
Last Quarter

Hourly Weather History & Observations

Time (MST) Temp. Windchill Dew Point Humidity Pressure Visibility Wind Dir Wind Speed Gust Speed Precip Events Conditions
12:15 AM 12.2 °F 1.7 °F 10.4 °F 92% 30.09 in 10.0 mi NNW 6.9 mph - N/A   Clear
12:35 AM 10.4 °F -0.4 °F 8.6 °F 92% 30.11 in 10.0 mi NW 6.9 mph - N/A   Clear
12:55 AM 12.2 °F 0.7 °F 10.4 °F 92% 30.11 in 10.0 mi NNW 8.1 mph - N/A   Clear
1:15 AM 14.0 °F 2.9 °F 12.2 °F 93% 30.11 in 10.0 mi NW 8.1 mph - N/A   Clear
1:35 AM 10.4 °F -2.4 °F 8.6 °F 92% 30.10 in 10.0 mi NNW 9.2 mph - N/A   Clear
1:55 AM 10.4 °F 0.8 °F 8.6 °F 92% 30.11 in 10.0 mi NNW 5.8 mph - N/A   Clear
2:15 AM 12.2 °F -0.2 °F 8.6 °F 85% 30.11 in 10.0 mi NNW 9.2 mph - N/A   Clear
2:35 AM 12.2 °F 0.7 °F 8.6 °F 85% 30.10 in 10.0 mi NNW 8.1 mph - N/A   Clear
2:55 AM 10.4 °F -0.4 °F 8.6 °F 92% 30.09 in 10.0 mi NNW 6.9 mph - N/A   Clear
3:15 AM 10.4 °F 0.8 °F 8.6 °F 92% 30.09 in 10.0 mi NNW 5.8 mph - N/A   Clear
3:55 AM 10.4 °F -2.4 °F 6.8 °F 85% 30.11 in 10.0 mi NW 9.2 mph - N/A   Clear
4:15 AM 10.4 °F 0.8 °F 8.6 °F 92% 30.10 in 10.0 mi NNW 5.8 mph - N/A   Clear
4:35 AM 12.2 °F 2.9 °F 8.6 °F 85% 30.11 in 10.0 mi NW 5.8 mph - N/A   Clear
4:55 AM 10.4 °F 2.2 °F 6.8 °F 85% 30.11 in 10.0 mi NNW 4.6 mph - N/A   Clear
5:15 AM 10.4 °F -1.5 °F 6.8 °F 85% 30.09 in 10.0 mi NNW 8.1 mph - N/A   Mostly Cloudy
5:35 AM 10.4 °F 4.0 °F 8.6 °F 92% 30.08 in 10.0 mi NNW 3.5 mph - N/A   Scattered Clouds
5:55 AM 10.4 °F 4.0 °F 6.8 °F 85% 30.08 in 10.0 mi NNW 3.5 mph - N/A   Clear
6:47 AM 6.8 °F -3.5 °F 5.0 °F 92% 30.09 in 10.0 mi NW 5.8 mph - N/A   Clear
7:47 AM 8.6 °F -1.3 °F 5.0 °F 85% 30.11 in 10.0 mi WNW 5.8 mph - N/A   Partly Cloudy
8:47 AM 8.6 °F -2.6 °F 6.8 °F 92% 30.12 in 10.0 mi NW 6.9 mph - N/A   Mostly Cloudy
9:47 AM 12.2 °F 2.9 °F 10.4 °F 92% 30.12 in 10.0 mi NW 5.8 mph - N/A   Overcast
10:47 AM 17.6 °F 12.3 °F 12.2 °F 79% 30.13 in 10.0 mi WNW 3.5 mph - N/A   Overcast
12:47 PM 17.6 °F 7.3 °F 12.2 °F 79% 30.09 in 10.0 mi ESE 8.1 mph - N/A   Overcast
1:53 PM 17.6 °F 10.7 °F 14.0 °F 86% 30.06 in 10.0 mi ESE 4.6 mph - N/A   Overcast
2:47 PM 19.4 °F - 15.8 °F 86% 30.07 in 5.0 mi Calm Calm - N/A Snow Light Snow
3:47 PM 19.4 °F - 15.8 °F 86% 30.06 in 10.0 mi Calm Calm - N/A   Mostly Cloudy
5:50 PM 15.8 °F - 14.0 °F 93% 30.05 in 10.0 mi Calm Calm - N/A   Mostly Cloudy
6:47 PM 15.8 °F - 14.0 °F 93% 30.04 in 10.0 mi Calm Calm - N/A   Overcast
7:47 PM 19.4 °F - 15.8 °F 86% 30.06 in 10.0 mi Calm Calm - N/A   Overcast
8:47 PM 19.4 °F 11.5 °F 17.6 °F 93% 30.06 in 10.0 mi NW 5.8 mph - N/A   Overcast
9:47 PM 21.2 °F - 17.6 °F 86% 30.05 in 10.0 mi Calm Calm - N/A   Overcast
10:15 PM 21.2 °F 12.6 °F 19.4 °F 93% 30.04 in 10.0 mi NW 6.9 mph - N/A   Overcast
10:35 PM 23.0 °F 14.7 °F 19.4 °F 86% 30.05 in 10.0 mi NW 6.9 mph - N/A   Overcast
10:47 PM 21.2 °F 9.5 °F 19.4 °F 93% 30.04 in 10.0 mi NW 11.5 mph - N/A   Overcast
10:55 PM 21.2 °F 10.9 °F 21.2 °F 100% 30.04 in 10.0 mi NW 9.2 mph - N/A   Overcast
11:15 PM 23.0 °F 13.9 °F 21.2 °F 93% 30.05 in 10.0 mi NW 8.1 mph - N/A   Overcast
11:35 PM 23.0 °F 14.7 °F 21.2 °F 93% 30.04 in 10.0 mi NW 6.9 mph - N/A   Mostly Cloudy
11:55 PM 21.2 °F 10.9 °F 21.2 °F 100% 30.05 in 10.0 mi NNW 9.2 mph - N/A   Overcast